Regional Weather Roundup
Issued by NWS

Home | Current Version | Previous Version | Graphics & Text | Print | Product List | Glossary On
Versions: 1 2 3 4 5 6 7 8 9 10 11 12 13 14 15 16 17 18 19 20 21 22 23 24 25 26 27 28 29 30 31 32 33 34 35 36 37 38 39 40 41 42 43 44 45 46 47 48 49 50
000
ASUS44 KMEG 250910
RWRTN
TENNESSEE HOURLY STATE WEATHER ROUNDUP
NATIONAL WEATHER SERVICE MEMPHIS TN
400 AM CDT MON MAY 25 2015

TNZ002-004-019-021-049-052-054-088>092-251000-
WEST TENNESSEE

CITY           SKY/WX    TMP DP  RH WIND       PRES   REMARKS
MEMPHIS INTL   CLOUDY    69  66  90 S6        30.02F
NWS MEMPHIS      N/A     68 N/A N/A MISG        N/A
JACKSON        CLOUDY    68  65  90 S5        30.05F
DYERSBURG      CLOUDY    68  54  60 CALM      30.05S
PARIS          MOCLDY    64  64 100 SW6       30.07S
LEXINGTON      CLOUDY    68  66  94 SW3       30.07S
$$

TNZ008-025-027-028-033-062-065-066-251000-
NORTH MIDDLE TENNESSEE

CITY           SKY/WX    TMP DP  RH WIND       PRES   REMARKS
NASHVILLE      CLOUDY    73  60  63 S14       30.10S
CLARKSVILLE    LGT RAIN  68  66  93 S12       30.10R
SMYRNA         CLOUDY    73  60  63 S10       30.11S
COOKEVILLE     CLEAR     72  57  60 S10       30.16S
CROSSVILLE     CLEAR     69  54  58 S9G21     30.22S
$$

TNZ061-075-076-078-094-096-097-251000-
SOUTH MIDDLE TENNESSEE

CITY           SKY/WX    TMP DP  RH WIND       PRES   REMARKS
FAYETTEVILLE   PTCLDY   N/A N/A N/A MISG      30.15R
TULLAHOMA      CLEAR     70  57  64 SE9       30.16S
WINCHESTER     CLEAR     70  57  64 S13       30.17R
MCMINNVILLE    CLEAR     72  57  60 VRB3      30.16S
COLUMBIA       PTCLDY    70  64  83 S10       30.08F
SHELBYVILLE    PTCLDY    72  61  68 SE9       30.14R
$$

TNZ017-018-042-046-047-251000-
NORTHEAST TENNESSEE

CITY           SKY/WX    TMP DP  RH WIND       PRES   REMARKS
TRI CITIES     PTCLDY    55  51  86 CALM      30.26R
ELIZABETHTON   SUNNY     52  50  93 CALM      30.28R
$$

TNZ012-013-036-069-073-074-251000-
CENTRAL EAST TENNESSEE

CITY           SKY/WX    TMP DP  RH WIND       PRES   REMARKS
KNOXVILLE      CLEAR     62  54  74 NE3       30.20S
OAK RIDGE      CLEAR     64  55  72 VRB3      30.23R
GATLINBURG     SUNNY     57  52  82 CALM      30.21S
MORRISTOWN     SUNNY     61  54  77 CALM      30.24R
$$

TNZ083-085-099-251000-
SOUTHEAST TENNESSEE

CITY           SKY/WX    TMP DP  RH WIND       PRES   REMARKS
CHATTANOOGA    CLEAR     70  57  63 S13       30.22R
$$

SKY/WX REPORTED AS FAIR MEANS FEW OR NO CLOUDS BELOW
12 THOUSAND FEET.




USA.gov is the U.S. government's official web portal to all federal, state and local government web resources and services.